Weather in Muswellbrook

Australia     32°15′34″S   150°53′22″E
temp.,
°C
wind,
m/s
gust,
m/s
humid.,
%
clouds,
%
prec.,
mm/h
press.,
hPa
HPBL,
m
27 september, mon
mon2701:00+8ese27854 0.0 1025214
04:00+6se11920 0.0 102417
07:00+8se11813 0.0 1025137
10:00+17ssw11480 0.0 10241164
13:00+21sw22380 0.0 10201835
16:00+19se55445 0.0 10191085
19:00+12ese37668 0.0 1020235
22:00+8ne1187100 0.0 102213
28 september, tue
tue2801:00+7ne0092100 0.0 102211
04:00+8ne1187100 0.0 102117
07:00+11nne11725 0.0 1023135
10:00+21w12447 0.0 1021972
13:00+23wnw3435100 0.0 10182665
16:00+21e1241100 0.0 10171469
19:00+16ene116116 0.0 101811
22:00+12nnw2274100 0.0 102021
29 september, wed
wed2901:00+12n1177100 0.0 101911
04:00+11n2281100 0.0 101841
07:00+14ne1271100 0.0 101989
10:00+21nnw364246 0.0 10171490
13:00+23nw5741100 0.0 10161803
16:00+18n31062100 0.0 1015856
19:00+14ne1188100 0.3 101524
22:00+13wnw2294100 0.4 101628
30 september, thu
thu3001:00+13nne1196100 2.6 101517
04:00+12nne1194100 2.6 101311
07:00+14n1292100 0.1 1014108
10:00+17nnw31081100 0.2 10141287
13:00+18n31074100 0.2 10121208
16:00+19nnw3867100 0.2 10111205
19:00+17ne1175100 0.0 101127
22:00+14n2289100 0.3 101132
1 october, fri
fri101:00+13ne1193100 0.4 100915
04:00+12nne2295100 2.1 100824
07:00+14n239287 0.5 1008118
10:00+21nnw3755100 0.5 1007982
13:00+24nnw6841100 0.0 10052381
16:00+20nnw5957100 0.3 10031005
19:00+13n2286100 1.3 100625
22:00+12n2393100 1.4 100761